Wind_Speed
10 10 11 12 12 13 13 13 16 19 21 21 22 24 25 25 25 26 26 24 23 24 23 21 21 21 21 20 19 19 18 18 17 16 15 15 15 14 13 12 12 12 12 12 12 12 12 12 12 12 12 11 10 10 11 12 13 13 12 12 13 12 11 11 10 10 9 9 10 11 12 12 11 11 12 12 12 12 12 13 14 14 15 15 15
10 11 13 13 14 14 13 12 14 17 18 20 22 24 24 25 26 27 26 25 25 26 25 23 22 22 21 20 19 18 18 17 16 16 16 16 16 16 16 15 14 13 12 12 12 12 12 12 11 12 12 12 11 12 12 14 15 14 14 14 15 14 13 13 13 13 13 12 11 11 12 13 13 12 13 14 14 15 15 16 16 17 18 18 18
12 13 14 14 15 16 15 15 16 16 17 19 22 23 24 26 27 27 26 25 25 26 25 23 22 21 21 20 18 18 18 17 17 17 17 17 17 17 17 16 14 14 13 13 12 12 12 12 11 13 14 15 15 16 16 16 16 16 17 17 17 16 16 16 16 15 15 14 14 13 13 14 15 16 16 17 17 17 18 18 19 20 20 21 21
12 12 13 13 16 18 18 20 21 19 17 17 18 19 22 25 27 28 26 25 25 25 24 22 21 22 20 18 17 16 16 16 16 17 17 18 18 17 16 15 15 15 15 14 14 13 13 13 14 15 17 18 19 19 18 18 18 17 18 20 19 19 18 18 18 17 16 16 16 16 16 16 17 18 19 20 20 20 20 20 21 21 22 23 24
11 10 10 12 15 17 19 21 22 20 18 17 17 18 19 23 25 26 25 24 24 24 24 23 23 23 20 18 17 17 17 18 18 18 18 19 19 19 18 16 16 15 14 14 15 15 16 17 18 19 20 20 22 21 20 19 18 18 19 20 20 19 18 17 17 17 17 17 18 19 19 19 20 21 21 22 23 23 23 23 23 24 25 26 27
11 9 10 12 14 14 16 18 19 19 18 18 18 18 18 20 22 23 23 23 24 25 25 25 24 23 21 20 19 19 19 19 19 19 20 19 18 19 18 16 16 15 14 14 16 17 17 18 20 20 20 20 22 23 22 21 19 18 18 19 19 20 19 18 18 18 19 19 21 21 22 22 23 24 24 25 26 27 27 27 28 29 29 30 31
11 11 11 13 14 14 15 16 18 19 18 17 19 19 17 17 18 20 21 23 25 26 26 25 24 23 21 21 20 20 20 20 20 20 21 20 18 18 18 17 17 16 15 16 17 18 18 18 19 20 20 20 21 21 21 20 19 18 18 19 20 21 22 21 22 22 23 24 25 25 26 27 28 28 28 29 30 31 31 32 33 33 33 34 35
12 12 13 13 14 14 14 14 15 16 17 17 17 17 15 15 15 16 18 20 22 24 24 23 22 21 21 21 21 21 22 22 21 20 21 21 20 19 19 18 17 16 17 17 18 18 19 18 19 20 20 21 20 19 18 18 18 19 20 21 22 23 25 25 26 27 28 28 29 30 31 32 32 32 33 33 34 34 35 36 37 37 37 38 39
13 12 14 14 13 11 11 11 10 12 15 16 16 17 17 17 16 15 16 18 20 21 22 21 20 20 20 20 20 20 20 21 20 20 21 22 22 21 21 20 18 18 19 19 19 19 19 20 20 20 20 20 20 21 21 22 22 22 23 24 25 26 27 29 30 31 31 32 33 35 36 36 36 36 36 37 37 37 38 39 40 40 41 42 43
15 14 14 15 14 12 12 11 11 13 15 15 15 15 15 14 13 13 14 16 17 18 19 19 19 19 20 20 19 18 19 19 19 19 20 21 22 23 23 23 22 22 21 21 22 22 22 23 23 23 23 23 23 24 25 26 26 27 28 29 30 30 30 31 32 34 35 36 37 39 40 39 39 39 39 39 39 40 40 41 42 43 44 44 45
16 16 15 15 15 15 14 14 14 15 16 16 15 14 13 13 14 15 15 15 15 16 16 17 18 19 20 20 20 20 20 20 20 20 20 22 24 26 27 28 29 28 25 23 23 25 26 27 27 28 29 29 28 29 29 30 31 32 33 33 33 34 34 35 36 38 39 40 41 42 42 41 41 41 42 42 42 43 44 45 45 45 45 45 45
18 18 17 17 17 17 16 16 16 16 17 17 16 16 16 16 17 17 17 16 16 17 18 19 21 21 21 21 22 22 23 22 23 23 24 26 28 29 30 30 31 31 28 27 29 31 31 32 33 34 34 34 33 33 34 34 35 35 35 35 35 36 37 38 39 40 41 42 42 42 42 41 42 42 43 43 44 44 45 45 45 45 45 45 45
21 20 19 18 18 18 18 19 19 19 19 19 19 19 19 20 20 20 19 19 19 21 22 24 24 23 23 24 25 26 26 25 26 27 28 29 30 31 31 29 29 29 30 33 37 38 36 36 37 37 36 36 36 37 37 37 38 38 38 38 38 38 39 40 41 41 42 42 42 41 41 41 41 41 41 41 42 42 43 44 44 45 45 45 45
24 23 22 21 21 20 20 21 20 20 20 21 22 23 23 24 24 24 24 23 23 24 25 26 27 27 27 28 28 29 29 30 30 31 31 32 32 33 33 32 32 33 35 39 41 41 40 40 39 38 38 39 39 39 40 40 40 41 41 41 41 42 43 44 43 43 42 41 40 40 40 40 39 39 39 39 40 41 43 44 45 46 46 46 46
28 28 27 27 27 26 26 25 23 23 23 24 25 26 26 27 28 28 28 27 27 27 28 29 30 31 31 31 32 33 33 34 34 35 35 35 36 36 36 36 37 38 40 42 42 42 42 41 41 42 42 41 42 42 43 43 44 45 45 45 45 45 44 44 42 41 40 40 39 39 39 38 38 38 39 40 42 44 46 47 47 48 48 47 47
29 30 30 31 31 31 31 31 31 31 31 31 31 31 32 32 33 34 34 34 33 33 33 33 34 35 35 36 36 37 38 38 38 38 39 38 39 39 39 39 40 41 42 43 43 43 43 42 42 43 43 43 44 44 45 46 48 49 49 48 47 46 45 43 42 41 40 40 39 39 39 39 39 40 41 43 46 48 49 50 50 49 49 48 47
30 31 31 32 32 33 34 35 35 36 36 36 36 37 37 38 38 39 39 39 39 39 38 38 38 38 39 40 40 41 41 41 41 41 41 41 42 42 41 41 42 43 44 44 45 45 44 43 43 43 44 44 45 46 47 49 50 50 49 48 46 46 45 44 44 43 42 41 40 40 40 40 40 42 44 47 50 51 51 52 51 51 49 48 47
30 31 32 32 33 35 36 37 38 39 39 39 38 39 39 40 42 43 44 44 44 44 44 43 43 43 43 43 43 43 43 43 43 43 43 44 44 44 44 44 44 45 45 46 46 46 45 45 46 46 47 47 47 48 49 51 51 50 49 48 47 45 44 43 42 42 41 40 39 39 40 40 42 45 48 51 52 54 54 53 52 51 50 48 47
31 31 32 34 35 36 38 39 40 41 42 42 41 41 41 42 44 46 46 45 45 45 45 44 43 42 41 40 40 41 41 42 42 43 44 44 44 45 47 47 47 47 47 47 47 47 47 47 48 48 48 49 49 50 51 51 51 50 49 49 48 45 43 41 40 38 37 36 36 38 40 43 46 49 51 53 55 56 56 55 53 52 50 49 48
33 34 35 37 38 38 39 40 41 42 43 43 43 42 43 43 43 44 43 42 42 42 42 41 39 38 37 38 39 39 40 42 43 44 45 45 47 49 52 52 51 50 50 50 49 48 48 49 49 49 49 50 51 51 50 50 49 49 48 48 47 45 43 41 39 37 37 37 39 41 44 47 49 52 54 56 58 59 58 56 54 53 51 50 49
38 39 39 40 40 41 42 42 42 42 43 42 43 44 45 44 43 42 41 41 40 39 39 39 39 38 40 44 45 45 45 46 47 49 50 52 53 55 55 55 54 53 54 54 53 52 52 52 52 52 52 53 53 52 51 51 50 50 49 49 48 46 45 44 43 42 42 43 45 48 50 52 53 55 57 59 60 60 58 57 56 54 52 51 51
42 43 43 43 43 44 45 45 45 45 44 44 44 46 47 46 45 44 43 42 42 43 44 46 46 47 48 51 52 51 50 50 50 52 53 55 55 55 55 55 54 54 54 54 55 55 55 55 55 55 56 55 54 53 53 52 52 52 52 51 50 49 49 48 48 48 49 50 51 53 55 57 59 60 61 62 61 60 58 57 56 54 53 53 53
43 44 44 44 44 45 45 46 46 47 46 47 47 49 50 49 48 47 47 48 50 52 54 55 56 55 55 56 57 57 55 53 52 52 53 53 53 53 54 55 55 54 53 54 55 54 54 55 55 55 55 54 54 55 55 55 55 55 54 54 53 53 53 52 52 53 54 55 56 58 60 61 62 63 64 63 62 61 59 58 56 55 55 54 55
45 46 47 47 47 47 47 48 49 49 50 50 51 51 53 53 53 54 55 57 58 59 59 59 60 60 60 60 61 60 59 57 55 53 52 53 53 53 53 53 54 54 54 54 54 54 54 55 55 55 54 54 55 56 56 57 57 57 57 57 57 57 57 57 58 58 59 60 61 61 61 62 62 63 63 63 63 62 61 59 58 57 56 56 56
47 49 51 52 53 53 54 54 55 55 55 56 56 56 57 58 59 61 62 63 63 63 60 57 57 59 60 61 61 61 60 59 56 54 52 52 51 51 51 52 52 52 52 52 52 52 53 53 54 55 55 55 55 55 56 57 57 57 58 58 59 59 59 59 59 60 60 60 60 60 59 59 60 60 61 61 61 61 61 60 60 59 58 58 58
51 51 52 54 56 57 58 59 60 60 60 60 60 60 61 61 62 63 64 64 64 64 60 53 51 53 57 58 58 59 58 57 55 53 51 50 49 48 49 49 49 48 47 46 47 48 48 50 52 53 54 54 55 55 55 54 55 55 56 56 57 57 57 57 57 57 56 56 56 55 55 56 57 58 59 60 61 61 61 61 60 60 60 60 60
54 55 55 56 57 59 60 62 63 64 64 64 65 64 64 63 63 63 64 64 64 64 63 60 57 56 57 56 56 55 54 54 54 53 50 48 48 48 47 46 45 44 43 43 44 45 45 46 48 50 51 51 52 52 53 53 53 54 55 56 56 56 55 55 54 52 51 50 50 50 51 53 56 58 59 60 61 61 61 62 62 62 62 62 61
56 56 57 58 58 59 60 62 63 64 66 66 67 66 66 65 65 64 64 64 64 64 64 64 63 61 59 57 54 51 48 47 47 47 46 46 47 47 47 45 44 44 42 41 42 42 43 44 45 47 47 48 48 49 50 51 52 53 54 55 55 54 53 51 50 49 48 47 47 50 55 59 60 61 62 63 63 63 63 63 62 62 61 59 57
57 57 58 59 60 61 61 62 63 64 65 66 66 67 67 66 66 66 65 65 66 66 65 64 64 62 60 58 54 50 46 46 46 45 44 47 49 48 47 46 45 45 45 44 45 46 46 46 46 47 47 47 46 46 47 49 51 53 54 53 52 51 51 50 50 49 48 48 52 58 63 63 61 61 61 61 61 60 59 58 57 55 52 50 48
58 59 60 61 61 62 62 63 63 64 64 64 65 65 66 67 67 68 67 67 67 67 66 65 64 62 61 59 56 52 51 52 53 51 48 48 48 48 47 47 46 46 46 46 47 49 49 50 50 51 51 50 47 46 47 48 50 50 50 50 50 51 52 52 52 50 49 53 60 63 61 57 54 53 53 53 53 52 50 49 47 45 42 41 39
58 59 60 61 62 62 63 63 64 65 65 66 66 66 67 67 68 68 68 67 66 66 65 64 63 62 61 60 59 58 56 57 58 56 54 54 54 54 54 52 51 50 50 51 52 53 53 52 52 52 52 50 48 47 48 49 49 49 50 51 52 53 52 52 52 52 55 60 62 58 53 49 48 47 47 46 45 44 42 40 39 37 35 34 33
55 56 57 58 59 60 61 61 62 63 64 65 66 67 67 67 67 67 67 67 66 66 65 65 65 64 63 62 61 60 59 59 59 58 57 57 59 60 60 59 57 56 56 56 57 56 55 53 51 50 47 45 45 47 50 52 53 53 53 54 54 53 52 53 54 57 59 60 55 50 47 45 43 43 43 42 40 38 36 34 32 31 30 29 29
53 54 54 55 55 56 57 58 59 60 61 62 62 63 64 64 64 64 65 66 65 65 65 65 65 65 65 64 63 63 62 62 61 60 59 59 60 61 61 61 60 60 59 56 53 53 54 55 57 57 55 52 52 52 53 55 56 56 56 56 55 55 55 56 58 59 57 52 47 44 42 41 40 40 40 37 35 32 30 28 27 26 26 26 27
50 51 51 52 52 53 54 55 56 57 58 58 59 60 61 62 62 63 64 64 64 64 64 64 64 64 64 64 63 63 63 62 62 62 61 61 62 62 63 63 62 62 61 58 56 56 57 57 58 59 60 60 61 59 58 57 57 57 57 59 60 60 60 60 59 56 51 46 42 40 38 38 38 37 36 33 30 27 25 24 24 23 24 25 25
45 46 47 48 49 50 51 52 53 54 56 57 57 58 59 60 61 61 62 62 62 62 61 61 61 61 61 61 60 60 60 60 60 61 61 61 60 59 58 58 57 55 54 53 54 55 57 58 58 58 58 58 59 60 60 60 60 60 61 62 62 62 61 59 56 52 47 43 39 36 35 35 34 33 31 28 25 23 22 21 21 22 23 24 24
39 41 43 45 47 48 49 50 51 51 52 52 53 54 54 55 56 57 58 58 59 59 58 58 58 57 57 56 56 55 54 54 55 55 55 54 50 44 40 37 36 37 40 44 46 49 53 56 58 60 60 59 59 59 59 60 61 62 63 64 63 62 60 57 52 48 44 40 36 33 32 32 31 28 26 23 22 21 20 19 20 21 21 22 23
36 38 41 42 43 43 43 43 42 42 42 42 44 45 46 47 49 50 51 52 52 53 53 53 52 52 52 52 52 51 50 49 48 47 47 46 44 41 39 35 31 32 36 41 43 45 48 51 54 58 61 63 63 63 63 63 64 64 65 65 64 61 57 52 48 44 40 36 32 30 30 29 27 25 22 20 20 19 18 19 20 20 20 21 21
33 36 36 36 36 35 34 34 33 33 33 34 34 35 37 38 40 41 42 43 44 44 45 45 45 44 43 43 44 46 46 45 43 42 40 39 39 42 46 47 46 46 46 45 45 45 47 49 51 52 54 57 59 61 61 62 62 63 64 64 60 55 50 46 43 39 35 31 28 27 27 26 24 22 20 19 18 18 18 19 18 18 18 19 19
31 32 32 31 29 28 27 27 27 27 27 26 26 25 25 25 26 27 29 31 33 35 36 37 37 38 37 35 34 35 36 37 38 36 33 31 33 38 43 47 49 51 51 51 51 51 52 53 54 53 53 55 56 58 59 60 61 62 61 58 53 49 45 42 38 34 30 27 25 25 25 23 21 20 19 18 18 18 18 18 17 16 17 17 16
29 30 29 28 26 24 23 23 23 22 22 21 21 20 19 18 18 18 19 21 23 24 26 27 30 34 36 37 36 33 31 32 34 35 33 31 31 34 37 40 42 43 43 44 45 46 48 51 53 54 56 57 58 59 59 59 60 59 57 53 49 45 41 37 33 29 26 24 24 23 23 21 20 19 18 18 18 18 18 17 16 16 16 15 13
26 27 26 25 24 23 22 21 20 20 20 19 19 18 17 17 16 16 16 17 18 18 19 20 23 26 30 35 37 37 37 37 37 37 38 37 37 37 38 38 37 37 37 38 39 40 42 44 46 48 50 51 52 52 52 52 52 52 51 49 45 41 36 32 28 25 23 23 22 21 21 20 19 19 19 18 18 17 17 16 15 15 15 13 11
23 23 23 21 21 20 20 20 19 19 19 19 18 17 17 16 15 14 15 15 15 16 17 18 20 22 24 27 31 34 37 38 39 38 38 38 40 42 42 41 39 39 38 38 38 39 40 40 41 43 44 44 44 44 44 45 46 46 45 43 39 34 31 27 24 22 22 21 21 20 20 20 20 20 19 18 18 17 16 16 15 15 15 12 10
20 20 20 19 18 18 19 19 20 21 21 21 21 20 18 17 16 14 13 12 13 14 16 17 18 21 24 26 29 31 33 35 37 38 38 39 41 42 42 40 39 38 38 37 36 36 36 36 36 37 37 37 37 37 39 40 40 39 38 35 31 28 26 24 22 21 20 20 20 20 20 20 20 20 19 18 17 16 16 16 15 15 15 12 10
17 17 18 17 17 18 19 20 21 22 22 21 21 20 17 15 14 12 10 11 13 16 17 17 18 19 21 24 29 32 33 33 34 34 35 37 38 38 36 36 35 35 35 34 34 32 32 32 33 33 33 32 32 32 33 33 32 31 30 27 25 23 22 21 20 20 20 20 20 20 20 20 20 19 18 17 16 16 15 16 16 16 15 13 10
14 14 15 15 16 17 18 18 19 20 19 19 19 18 15 11 10 10 10 12 16 18 18 17 18 18 16 16 21 26 30 32 32 31 31 32 32 31 31 31 31 31 31 31 31 31 32 32 32 32 31 31 29 28 27 26 25 25 23 22 21 20 20 20 19 20 20 20 20 20 20 20 20 19 18 17 16 16 15 15 16 16 15 13 11
12 12 13 14 15 16 17 17 17 17 17 17 16 16 13 10 10 11 12 13 14 15 16 15 15 14 11 8 10 14 19 23 26 27 28 29 29 29 28 28 28 28 28 29 29 29 29 29 29 28 28 26 24 22 21 21 21 20 19 19 18 19 19 19 20 20 20 20 20 20 20 20 20 19 18 18 17 16 15 15 15 15 15 14 12
12 12 13 14 15 17 18 18 17 16 14 13 13 14 13 11 9 10 11 11 10 11 13 14 14 12 10 6 3 5 9 13 17 20 22 24 25 25 24 24 25 25 24 22 21 20 20 20 20 20 20 18 17 17 18 18 17 16 16 17 18 19 20 20 20 19 19 19 19 20 20 20 19 19 18 18 17 16 16 16 16 15 15 14 13
12 12 13 14 16 17 18 19 18 16 12 10 10 11 12 11 10 9 9 7 6 8 12 14 13 12 11 9 6 3 2 5 8 11 14 16 17 18 19 19 19 17 15 13 13 15 15 15 14 13 13 13 13 14 15 14 14 15 16 17 18 19 19 18 18 18 18 18 19 19 20 20 19 19 18 18 17 17 16 16 16 15 14 14 14
11 12 13 14 15 16 18 19 20 18 14 9 7 8 10 11 10 9 7 6 5 8 11 12 11 9 9 8 7 6 5 4 4 6 8 9 10 11 12 13 12 12 12 12 13 13 12 11 11 11 12 12 12 12 13 13 14 16 17 18 18 17 17 16 16 16 16 17 18 19 19 19 19 19 19 18 17 17 17 16 16 15 14 13 13
10 11 11 12 14 16 18 20 21 21 18 13 9 7 8 9 10 10 8 6 5 6 8 9 9 9 8 7 5 4 3 3 2 3 6 8 9 9 10 11 11 10 10 11 11 10 10 11 12 12 12 12 12 13 13 14 15 16 17 16 15 15 14 14 14 15 15 16 17 17 18 19 19 19 19 18 18 17 17 17 16 15 14 13 13
9 10 11 12 13 15 18 20 22 23 22 19 16 12 9 8 8 8 8 7 6 5 6 7 7 7 6 6 5 4 3 3 3 3 4 5 6 7 8 8 7 6 5 6 8 10 12 13 13 12 11 12 13 13 14 15 15 15 14 13 13 12 12 12 13 14 15 15 16 16 17 18 18 19 19 19 18 18 18 18 17 16 15 14 13
Wind_Direction
239 246 250 249 246 244 249 255 252 248 249 253 255 255 257 259 261 262 260 260 257 249 248 255 258 258 258 257 261 265 269 273 276 276 277 277 277 277 279 282 286 289 292 295 294 293 292 292 291 290 288 287 287 287 287 286 288 294 296 291 287 287 288 289 289 288 285 283 281 282 283 282 278 277 279 281 281 282 285 287 288 289 289 289 291
244 252 251 242 237 237 240 245 251 252 253 255 256 258 261 261 261 260 258 257 252 246 248 255 259 259 259 259 264 268 270 274 276 276 277 278 279 283 285 288 290 291 293 294 292 290 288 286 287 288 287 286 286 284 283 285 289 293 293 289 286 287 289 291 295 296 294 291 288 288 290 290 288 285 284 286 286 286 288 289 289 289 289 290 291
245 247 246 241 244 248 247 249 254 255 255 255 256 260 265 265 262 259 258 255 250 247 250 256 260 260 260 264 272 276 278 279 278 278 281 284 287 288 289 289 287 286 286 284 281 278 276 275 279 286 289 290 289 286 284 286 289 290 291 290 289 289 291 294 297 296 294 293 291 290 290 290 291 291 290 288 288 288 289 289 289 288 289 291 292
241 244 245 244 248 250 248 250 252 253 257 259 257 258 261 260 258 256 256 255 251 249 253 257 259 259 261 269 276 277 275 274 274 278 282 284 282 279 276 274 274 275 278 279 279 275 270 271 277 284 288 289 288 287 286 287 288 288 289 290 289 288 290 294 296 296 294 294 293 291 289 288 287 288 287 286 286 287 287 287 288 288 290 292 294
245 245 245 244 244 244 243 245 245 245 249 251 247 247 249 253 255 255 254 253 250 249 253 256 256 255 259 267 270 270 271 272 275 278 278 275 272 270 269 269 270 271 275 278 281 278 275 277 283 287 289 287 285 284 284 286 287 288 287 288 288 287 287 288 289 292 294 295 294 294 293 292 291 291 291 291 291 290 289 288 288 289 291 293 296
255 250 247 245 243 241 242 245 244 240 238 238 239 243 247 250 254 252 249 247 247 250 254 256 255 255 261 268 273 277 280 282 283 282 278 278 280 278 275 271 269 270 273 277 280 281 281 282 284 287 290 290 289 285 280 279 283 286 286 287 288 288 287 285 284 287 291 293 293 293 293 292 291 292 292 291 291 290 290 289 288 289 289 291 292
259 260 253 246 242 239 239 243 247 247 243 237 240 248 249 247 247 247 245 245 247 251 254 255 255 258 265 271 276 280 282 283 285 283 278 278 282 283 280 276 274 274 276 277 278 279 281 283 284 286 288 292 294 291 283 279 283 285 284 286 287 287 287 285 284 286 289 293 294 294 293 292 291 291 290 290 289 289 289 289 288 288 288 289 289
260 265 259 250 246 243 239 242 248 251 248 241 242 250 249 244 246 248 248 248 249 251 254 256 259 263 268 272 275 278 278 279 279 278 274 274 276 278 278 278 278 278 277 279 280 280 280 281 284 288 291 293 294 293 289 289 291 290 288 287 285 284 284 283 284 286 289 292 294 295 295 294 293 292 290 289 289 290 290 291 291 291 291 291 290
253 254 254 255 254 250 247 251 252 250 250 250 253 257 252 247 250 254 256 258 257 255 255 258 262 265 268 272 275 276 276 276 274 272 271 274 278 278 277 278 280 282 282 283 283 283 281 280 282 286 290 292 291 290 290 291 292 291 289 287 284 282 281 281 283 285 287 290 293 294 295 294 294 292 290 289 289 289 290 291 292 292 292 292 292
247 242 245 251 251 247 248 252 251 250 252 251 252 255 253 251 255 261 264 265 264 264 262 260 262 264 267 271 273 275 278 280 278 275 272 273 277 279 278 279 281 284 287 287 285 283 280 279 281 284 287 288 288 288 287 286 287 287 286 285 283 282 281 280 282 284 286 289 291 292 292 292 292 291 290 289 290 290 290 290 290 290 290 290 290
247 242 243 247 248 245 245 248 250 250 248 242 242 248 252 254 257 261 262 261 261 264 267 268 269 269 269 271 273 277 280 280 280 281 279 278 280 282 283 283 283 283 283 285 289 288 282 278 280 283 286 287 286 287 286 284 284 283 282 281 280 280 280 280 282 283 286 287 288 289 289 289 289 289 288 289 289 289 289 289 289 289 289 288 289
247 247 249 252 251 248 248 252 253 251 249 250 253 259 260 260 260 260 262 261 261 263 269 274 275 273 272 272 274 277 279 277 277 278 279 281 282 284 286 286 285 281 276 278 288 291 285 279 279 282 285 286 286 287 287 285 283 282 281 279 279 278 279 280 282 283 284 285 286 286 286 286 286 286 287 287 288 288 288 288 288 288 288 287 287
255 256 257 257 253 251 254 259 258 254 253 255 260 263 263 262 261 261 262 264 264 267 271 273 272 272 272 272 273 275 276 275 275 275 276 278 280 282 283 284 282 279 275 278 286 290 287 283 281 281 283 284 286 287 287 286 285 284 282 282 281 281 282 283 283 284 284 284 284 284 284 284 285 285 285 286 287 288 288 288 289 289 288 288 288
260 262 263 260 256 254 256 259 257 252 250 252 258 261 262 262 263 263 263 262 262 265 268 269 269 270 270 271 272 273 273 274 274 274 275 277 279 280 281 280 278 277 277 279 283 285 285 283 281 280 280 282 283 285 286 286 285 284 283 282 283 283 283 284 284 283 282 281 281 281 281 282 282 282 284 285 287 289 290 290 290 290 290 290 290
260 263 265 265 264 262 261 259 256 255 256 259 260 260 260 261 264 264 262 259 259 262 264 265 267 269 271 271 271 271 271 272 273 274 275 276 278 280 281 281 280 279 279 280 281 282 282 279 278 277 278 279 282 284 286 287 287 286 285 284 284 284 283 282 281 281 280 279 280 280 279 278 279 280 283 287 291 293 294 294 293 292 292 292 291
264 266 269 271 271 268 265 262 260 261 262 263 263 261 260 260 261 262 261 259 259 260 262 263 264 266 267 268 269 269 270 270 272 274 275 276 277 279 281 282 282 281 280 280 281 281 279 276 274 274 274 276 280 283 285 287 287 287 286 286 285 284 283 282 281 280 279 279 279 278 277 276 278 282 287 291 295 298 298 298 297 295 293 293 292
267 268 269 271 271 269 267 265 264 262 261 260 261 261 262 263 263 263 262 261 260 261 261 261 262 263 263 264 266 267 268 270 271 273 274 275 277 279 280 281 281 281 280 280 279 278 276 273 272 272 273 275 277 280 283 284 283 282 282 283 284 284 283 282 281 281 280 279 279 278 276 276 280 286 291 294 298 300 300 300 299 297 294 294 293
264 265 266 267 267 266 265 265 264 264 263 263 263 263 264 265 265 264 263 262 261 261 261 261 261 261 261 262 263 264 266 267 269 270 272 273 275 276 278 280 280 279 278 278 277 275 273 271 271 271 273 276 279 281 283 283 281 278 277 278 280 282 282 282 281 281 281 280 279 278 278 280 284 290 293 295 298 299 299 299 299 297 294 293 293
262 264 266 268 268 266 263 262 262 263 264 264 264 264 263 263 263 263 263 263 261 260 259 259 258 258 259 261 262 264 266 267 268 269 270 271 272 274 276 278 277 276 276 276 275 273 272 271 272 273 275 277 279 281 281 280 279 278 277 276 278 279 279 280 280 281 280 281 281 280 280 283 286 290 292 295 297 297 297 297 297 295 293 292 292
264 267 269 271 270 269 267 265 264 264 264 264 264 263 261 260 261 261 261 261 261 260 259 257 256 257 262 266 268 269 271 271 271 270 270 270 271 273 274 274 274 274 275 275 275 275 274 274 274 276 277 277 279 280 280 278 278 278 278 277 277 277 277 277 277 277 278 279 281 282 282 284 287 290 292 294 295 295 294 295 295 294 292 292 292
264 266 268 269 269 268 267 265 264 265 266 265 265 264 262 261 262 261 258 257 257 257 257 258 258 260 266 273 275 275 275 274 273 271 271 272 273 274 274 273 272 273 273 274 274 275 275 275 276 277 278 279 280 281 280 280 279 279 279 278 278 276 276 275 275 276 277 278 280 282 284 286 288 290 291 292 292 292 292 293 293 293 291 290 290
263 262 260 260 261 262 262 261 261 263 264 265 266 266 265 264 264 262 258 256 256 258 261 264 265 265 266 270 273 273 273 273 271 270 270 272 273 273 274 274 273 273 272 272 272 272 273 274 274 275 276 277 278 279 279 279 279 279 279 278 277 276 275 275 275 277 278 279 281 282 284 287 289 290 290 289 289 289 290 290 290 290 289 288 288
259 256 253 251 252 253 255 256 258 259 261 262 263 264 266 265 263 261 261 262 265 269 271 272 272 271 270 270 271 272 272 272 271 270 270 271 273 274 274 275 275 274 272 272 271 271 272 273 273 274 275 274 274 274 274 275 276 276 276 276 276 276 276 276 277 278 279 280 282 283 284 286 288 288 288 288 289 289 289 289 288 287 287 287 287
257 254 252 251 252 252 253 254 256 257 259 261 262 263 265 264 263 263 266 269 271 274 275 276 276 275 274 273 273 273 272 272 273 273 273 273 273 273 274 275 275 274 273 272 271 271 272 272 273 274 274 274 273 272 271 271 272 273 274 274 275 276 277 278 278 279 280 281 282 283 284 285 285 286 287 288 288 289 289 289 288 287 287 287 287
262 260 259 259 260 261 262 263 264 265 266 267 267 267 267 267 267 268 270 272 272 273 274 275 275 274 273 273 273 273 273 273 273 274 274 272 271 271 271 272 272 273 273 273 273 273 273 273 273 273 273 273 272 272 272 272 272 272 272 273 274 275 277 278 278 279 280 281 281 282 283 284 285 285 286 287 287 287 287 288 288 288 288 288 289
267 266 264 264 265 267 268 269 270 271 271 271 271 270 270 270 270 270 271 271 271 272 271 269 270 271 272 272 272 273 273 273 273 274 273 272 272 271 270 269 270 270 271 272 273 273 273 273 272 271 272 272 272 272 273 273 273 274 274 274 275 276 277 278 279 280 280 281 282 283 284 285 286 286 286 287 287 287 287 287 288 289 290 290 291
270 269 267 266 266 266 267 268 269 270 271 271 271 272 271 271 270 270 270 270 270 270 270 268 267 268 269 271 272 272 272 273 275 276 274 272 272 272 270 268 268 269 270 270 271 272 272 272 271 270 269 270 271 272 273 274 275 276 276 276 277 277 278 279 280 280 281 281 283 285 287 288 288 287 287 287 287 287 287 288 289 289 290 290 290
271 270 269 268 268 267 267 267 267 268 269 270 271 272 272 272 272 271 271 271 270 270 269 269 268 267 268 269 269 269 269 269 270 272 273 274 274 273 270 268 268 269 269 268 269 271 272 271 270 269 268 269 270 271 271 273 274 275 275 276 276 277 278 278 279 280 281 281 284 288 291 291 289 288 287 286 287 288 289 289 289 289 289 289 289
271 270 270 270 269 269 269 269 268 268 268 269 269 270 270 271 271 271 271 270 270 269 269 268 268 268 267 267 265 264 264 263 261 261 267 272 274 271 267 265 266 267 267 266 267 269 271 269 268 269 270 270 271 272 273 272 273 273 273 274 275 277 277 277 279 280 280 282 289 293 294 293 291 289 287 287 288 289 290 290 290 289 289 288 286
271 271 270 270 270 270 270 269 269 269 268 268 268 268 268 268 268 268 268 268 268 268 268 268 268 267 267 266 263 259 258 258 257 256 257 260 263 264 262 261 264 267 269 268 267 268 269 270 272 274 274 273 274 275 274 271 270 271 273 275 277 278 277 277 278 278 280 287 294 296 295 292 291 289 288 289 289 290 290 290 289 288 287 284 282
271 271 270 270 270 270 269 269 269 268 268 268 267 267 267 267 268 268 268 267 267 267 267 267 267 266 265 264 263 260 257 256 256 256 254 252 254 258 260 263 266 267 267 266 267 269 271 273 274 274 272 271 272 272 270 268 268 270 273 276 277 277 277 278 278 279 284 291 295 295 293 292 290 289 289 290 290 291 290 289 288 286 284 282 281
274 273 273 272 272 271 271 270 270 269 269 269 268 268 268 268 268 268 268 267 266 266 266 266 266 265 264 263 263 262 261 259 259 259 258 256 256 258 261 263 264 265 265 266 268 269 269 267 266 264 263 263 265 267 267 267 268 270 273 275 274 275 277 279 280 284 289 292 293 293 292 292 291 291 292 292 292 291 290 287 286 285 284 284 285
276 276 276 276 275 275 275 274 273 272 272 271 270 270 269 268 267 267 266 266 265 264 264 263 263 263 262 262 261 261 261 261 261 261 261 260 260 260 261 262 263 264 265 265 264 263 261 260 259 260 260 261 263 265 266 267 268 271 272 273 273 274 276 279 283 287 289 291 290 291 291 291 292 293 293 293 292 290 288 287 287 286 286 286 287
279 279 279 278 278 277 277 276 275 274 274 273 272 271 270 269 267 266 265 264 264 263 262 262 261 261 260 260 259 259 259 259 260 260 260 260 260 261 263 264 265 265 265 263 261 260 259 259 259 259 259 261 262 264 265 265 266 268 271 273 274 275 277 281 285 288 289 288 288 289 290 290 291 292 291 291 290 288 286 286 286 285 286 288 291
282 283 283 282 281 280 279 279 277 276 275 273 272 271 270 269 268 266 265 264 264 263 262 261 261 260 259 259 259 258 258 258 258 258 258 259 260 263 265 267 267 267 265 263 261 259 258 257 257 257 258 260 261 262 263 264 264 267 270 272 274 276 279 283 286 287 287 287 287 288 288 288 289 289 288 287 286 285 284 283 282 283 287 292 296
288 288 288 287 286 285 283 282 280 278 277 275 274 272 270 269 267 266 265 264 263 262 261 261 260 260 259 259 258 258 258 257 257 257 258 258 257 257 260 265 267 265 261 259 258 257 256 255 254 254 255 256 258 260 262 263 264 267 269 270 273 277 281 284 285 284 284 284 285 285 286 286 287 286 284 282 281 280 278 277 278 283 290 297 302
293 294 295 295 294 292 289 287 285 283 282 281 279 277 274 271 269 267 265 264 263 262 260 259 259 259 259 258 257 256 256 255 256 255 255 254 250 243 239 238 239 241 244 247 250 252 253 253 253 253 254 255 256 259 261 263 265 267 268 270 274 278 281 282 282 281 281 281 281 282 282 283 283 281 278 276 274 271 270 273 278 286 294 301 306
300 303 306 306 303 298 294 292 290 289 288 288 286 283 280 277 274 271 269 268 266 264 263 261 259 257 257 257 256 254 253 252 251 250 250 251 247 241 236 234 232 234 237 240 244 247 249 251 252 253 255 256 258 260 261 263 265 268 269 271 275 278 279 279 278 277 277 277 277 277 278 278 277 274 271 267 264 263 266 272 279 289 297 303 311
304 307 311 313 311 305 299 295 294 293 293 293 295 294 292 288 284 280 276 273 270 267 265 263 259 254 251 251 251 251 251 250 247 245 245 246 243 240 238 238 238 240 241 243 245 248 252 255 257 257 259 261 263 264 265 267 268 269 271 273 275 276 277 276 275 273 272 271 271 271 272 271 268 264 261 257 255 258 265 271 280 291 298 303 316
304 306 309 312 314 313 310 306 303 302 301 301 302 303 302 300 297 293 288 283 279 274 269 265 258 252 249 248 246 241 239 241 242 238 233 233 235 236 237 238 240 243 245 249 251 253 257 260 262 262 263 265 266 267 268 269 270 270 272 273 274 274 273 272 270 267 265 264 265 265 264 261 258 253 249 247 250 256 264 271 281 290 295 302 318
306 308 310 311 312 312 313 313 312 311 310 309 307 306 305 304 303 301 298 294 291 287 281 273 265 258 253 251 248 242 237 236 237 234 231 234 240 242 241 241 245 250 255 259 261 262 262 264 264 265 265 266 267 268 269 269 269 269 270 271 270 270 269 266 262 258 257 258 257 255 253 250 246 242 240 242 248 255 263 271 279 287 291 300 318
311 315 318 317 314 314 316 318 319 319 317 314 311 309 307 306 303 302 301 299 298 297 293 286 276 268 260 254 251 247 242 239 239 237 236 240 245 248 248 250 255 259 262 264 265 266 266 267 267 267 268 269 269 269 268 267 266 266 267 267 267 265 261 256 250 248 249 249 247 243 240 238 236 235 236 241 247 254 263 270 277 282 287 296 314
316 320 323 323 323 322 322 321 321 320 318 316 313 310 306 304 305 306 307 308 309 308 305 299 288 277 266 257 251 248 244 240 239 239 239 241 245 249 251 254 256 258 261 263 265 267 268 268 269 269 269 268 267 265 264 264 264 264 264 263 261 255 248 242 239 239 239 236 232 230 230 230 231 232 235 240 247 256 265 271 275 279 283 291 306
320 321 322 324 324 323 321 320 319 319 318 318 318 316 310 305 306 311 312 314 317 317 314 310 304 291 273 258 250 247 245 241 239 239 240 243 246 249 250 251 253 256 259 261 264 265 267 268 268 267 266 264 262 260 259 260 259 258 256 252 246 238 233 230 229 228 225 221 221 223 225 227 228 230 234 241 248 256 263 270 274 276 279 286 297
323 323 324 326 327 326 325 325 324 324 325 327 328 328 321 309 302 303 305 312 322 327 324 318 314 309 292 266 251 246 244 241 239 237 237 240 244 246 248 250 252 254 257 259 262 264 265 266 265 263 261 259 257 256 254 251 248 244 239 233 227 223 220 218 216 214 212 213 216 219 222 225 227 230 235 242 248 254 261 268 273 274 276 280 288
335 335 337 340 341 339 337 336 333 331 333 336 338 338 332 317 298 295 303 314 330 341 341 334 327 324 317 293 261 249 243 240 236 234 235 237 240 242 245 247 250 253 256 258 260 262 262 261 259 256 254 252 250 246 241 237 232 229 224 218 214 211 208 205 204 205 207 211 215 219 222 225 227 231 236 242 247 253 259 265 270 273 274 276 280
352 355 358 0 359 355 351 347 343 340 340 343 345 346 344 334 316 307 312 319 332 346 351 351 351 353 355 351 302 243 233 228 227 227 229 232 234 237 239 243 246 249 251 252 252 252 251 249 247 245 241 238 234 231 229 225 219 215 213 208 203 199 197 197 199 203 208 213 217 221 224 227 229 233 238 243 248 253 258 263 267 270 271 273 276
357 6 12 13 11 8 5 1 357 354 352 352 354 357 359 357 345 332 330 332 335 342 348 354 2 12 20 28 43 72 155 194 207 215 220 224 229 233 236 237 236 234 232 234 240 246 247 245 239 231 223 220 222 225 223 215 207 204 200 195 191 190 192 195 200 206 212 218 222 225 228 230 232 235 240 244 248 252 256 260 262 265 268 272 273
355 7 16 20 20 18 18 16 13 9 7 8 9 9 12 14 12 3 353 346 337 340 348 359 12 25 33 43 57 72 89 114 149 176 190 201 210 215 214 213 213 216 223 233 242 247 247 240 233 225 219 218 220 219 210 199 193 191 187 184 185 189 193 199 205 212 219 224 228 230 232 234 236 238 241 245 248 251 253 255 258 260 264 268 271
5 15 24 29 30 30 30 30 28 24 21 19 19 15 15 21 25 24 22 15 357 345 353 8 23 34 39 44 56 76 99 113 136 174 187 191 195 198 201 205 212 221 232 237 236 230 225 224 224 223 219 215 211 204 194 185 182 181 180 181 187 193 199 206 214 221 226 230 233 236 237 238 239 240 242 244 247 248 249 251 253 256 259 263 267
26 32 36 37 37 37 37 38 38 38 35 33 31 29 25 22 22 24 27 27 18 7 7 13 20 26 32 41 55 76 99 110 115 142 168 178 185 192 197 202 206 213 225 231 225 217 215 216 214 207 201 197 193 186 180 176 176 177 180 186 194 201 208 216 223 229 234 238 240 242 243 243 243 244 244 245 247 247 247 248 250 253 256 259 263
Height
5754 5754 5755 5755 5755 5755 5756 5756 5756 5756 5757 5757 5758 5758 5758 5759 5759 5759 5759 5761 5762 5762 5763 5764 5764 5765 5765 5766 5766 5766 5766 5766 5766 5766 5766 5766 5766 5766 5767 5767 5768 5768 5769 5769 5769 5770 5770 5770 5770 5770 5770 5770 5770 5770 5770 5770 5769 5770 5771 5771 5771 5771 5772 5773 5773 5774 5774 5775 5775 5774 5774 5774 5774 5774 5774 5773 5774 5774 5774 5773 5773 5772 5772 5771 5771
5750 5750 5750 5750 5750 5751 5752 5753 5753 5753 5753 5754 5754 5755 5756 5756 5756 5756 5757 5758 5759 5760 5762 5763 5763 5763 5764 5765 5765 5765 5765 5765 5765 5764 5765 5764 5765 5765 5765 5766 5767 5767 5768 5768 5768 5768 5768 5768 5768 5768 5768 5768 5769 5769 5769 5768 5768 5769 5770 5770 5769 5769 5770 5771 5771 5771 5771 5772 5772 5773 5772 5772 5772 5772 5772 5772 5772 5771 5771 5770 5770 5769 5769 5768 5768
5746 5747 5747 5747 5747 5748 5749 5750 5750 5750 5750 5751 5752 5753 5754 5754 5754 5754 5754 5756 5757 5758 5760 5761 5761 5762 5763 5764 5764 5764 5764 5764 5764 5763 5763 5764 5764 5764 5764 5765 5765 5766 5766 5766 5765 5765 5766 5766 5766 5766 5766 5767 5767 5768 5768 5767 5767 5767 5767 5767 5768 5768 5768 5768 5768 5769 5769 5768 5769 5770 5770 5770 5769 5770 5770 5770 5770 5769 5768 5767 5766 5766 5766 5765 5765
5742 5744 5745 5746 5746 5746 5746 5747 5747 5747 5749 5750 5750 5751 5751 5751 5751 5751 5752 5753 5755 5756 5758 5759 5760 5761 5762 5763 5763 5763 5763 5763 5762 5762 5763 5762 5762 5762 5762 5762 5763 5763 5764 5764 5764 5764 5764 5764 5764 5765 5765 5765 5765 5766 5766 5766 5765 5765 5764 5765 5765 5766 5766 5766 5765 5765 5765 5765 5765 5766 5767 5767 5767 5767 5766 5767 5767 5766 5766 5765 5764 5763 5763 5762 5762
5739 5741 5743 5744 5744 5744 5744 5744 5745 5745 5746 5746 5747 5747 5747 5747 5748 5748 5750 5751 5753 5754 5756 5757 5758 5759 5760 5760 5760 5760 5761 5761 5761 5761 5761 5760 5759 5759 5759 5760 5761 5762 5763 5763 5763 5763 5763 5763 5763 5763 5764 5764 5763 5763 5764 5764 5764 5763 5763 5762 5762 5763 5764 5764 5763 5763 5763 5762 5762 5762 5763 5763 5763 5763 5763 5763 5763 5762 5762 5762 5762 5761 5760 5759 5758
5737 5739 5740 5740 5741 5742 5743 5743 5743 5743 5743 5744 5744 5744 5745 5745 5745 5746 5747 5749 5751 5752 5754 5755 5756 5757 5757 5757 5758 5758 5759 5759 5759 5760 5759 5758 5758 5758 5758 5759 5759 5760 5761 5761 5762 5762 5762 5762 5762 5762 5762 5762 5761 5760 5761 5761 5762 5761 5761 5760 5760 5760 5761 5761 5761 5760 5760 5760 5760 5760 5760 5760 5760 5760 5760 5759 5759 5758 5758 5758 5758 5757 5757 5756 5755
5735 5736 5737 5737 5738 5739 5739 5739 5740 5740 5741 5742 5741 5742 5743 5743 5744 5744 5745 5746 5748 5750 5751 5752 5754 5754 5754 5755 5755 5755 5756 5756 5757 5757 5757 5757 5757 5757 5757 5757 5758 5758 5758 5759 5759 5760 5760 5761 5761 5760 5761 5760 5759 5759 5758 5758 5759 5759 5758 5758 5758 5757 5758 5758 5757 5757 5757 5757 5756 5756 5756 5757 5756 5756 5756 5755 5754 5754 5753 5753 5753 5752 5752 5752 5751
5733 5733 5732 5732 5734 5736 5736 5736 5737 5737 5737 5738 5738 5739 5739 5740 5741 5742 5743 5744 5745 5747 5749 5750 5751 5751 5751 5751 5752 5752 5753 5753 5754 5755 5756 5755 5755 5755 5755 5756 5756 5757 5757 5757 5757 5757 5758 5758 5758 5758 5758 5758 5758 5757 5756 5756 5756 5756 5756 5756 5756 5756 5755 5755 5754 5754 5753 5753 5753 5752 5752 5752 5752 5751 5751 5750 5750 5749 5748 5747 5747 5747 5746 5745 5744
5731 5731 5730 5729 5731 5733 5734 5735 5736 5736 5735 5736 5737 5737 5737 5738 5739 5741 5742 5742 5743 5745 5747 5747 5748 5748 5748 5748 5749 5749 5749 5750 5751 5752 5753 5753 5753 5753 5753 5754 5755 5755 5755 5755 5755 5755 5756 5756 5756 5756 5756 5755 5755 5755 5754 5754 5754 5754 5754 5754 5753 5753 5752 5752 5751 5751 5750 5750 5749 5749 5748 5748 5747 5747 5746 5746 5746 5745 5744 5743 5742 5741 5741 5739 5738
5729 5730 5729 5728 5729 5731 5732 5733 5735 5735 5735 5735 5736 5735 5736 5737 5739 5740 5741 5741 5742 5744 5745 5745 5745 5745 5745 5746 5746 5746 5746 5747 5747 5748 5749 5750 5750 5750 5751 5751 5752 5752 5752 5752 5752 5753 5753 5753 5753 5753 5753 5752 5752 5752 5751 5751 5751 5751 5751 5750 5750 5750 5749 5749 5748 5747 5747 5746 5746 5745 5744 5744 5743 5742 5741 5741 5741 5740 5739 5739 5738 5737 5736 5735 5733
5727 5728 5728 5727 5727 5728 5729 5730 5731 5732 5732 5733 5733 5733 5734 5736 5737 5738 5739 5740 5741 5742 5743 5743 5743 5743 5743 5743 5743 5743 5743 5744 5744 5745 5746 5746 5747 5747 5748 5748 5749 5749 5749 5749 5750 5751 5751 5750 5750 5750 5750 5749 5748 5748 5748 5747 5747 5747 5747 5747 5746 5746 5745 5745 5744 5743 5743 5742 5741 5740 5740 5739 5738 5737 5736 5736 5735 5734 5734 5733 5732 5731 5730 5729 5728
5725 5726 5726 5725 5725 5726 5727 5728 5729 5730 5730 5730 5731 5731 5732 5733 5734 5735 5736 5737 5738 5739 5739 5740 5740 5740 5740 5740 5740 5740 5740 5741 5741 5742 5743 5743 5743 5743 5744 5745 5745 5745 5746 5745 5745 5747 5747 5747 5746 5745 5745 5744 5744 5743 5743 5743 5743 5743 5742 5742 5742 5741 5741 5740 5739 5739 5737 5737 5736 5735 5734 5734 5733 5732 5731 5730 5730 5729 5728 5727 5726 5725 5724 5723 5723
5722 5723 5723 5723 5723 5723 5723 5724 5725 5726 5727 5727 5728 5729 5729 5729 5730 5732 5733 5734 5735 5735 5735 5736 5736 5736 5736 5736 5736 5736 5737 5737 5738 5738 5739 5740 5740 5739 5740 5741 5741 5742 5742 5742 5741 5741 5742 5741 5741 5740 5740 5739 5738 5738 5738 5738 5738 5738 5737 5737 5736 5736 5735 5735 5734 5733 5732 5731 5730 5730 5729 5728 5727 5726 5725 5724 5724 5723 5722 5720 5719 5718 5718 5716 5716
5719 5720 5720 5720 5720 5720 5720 5720 5721 5723 5724 5725 5726 5726 5726 5726 5726 5728 5728 5729 5730 5731 5731 5732 5732 5732 5732 5732 5732 5732 5733 5733 5733 5734 5734 5735 5735 5734 5735 5736 5737 5738 5738 5738 5737 5737 5736 5735 5734 5735 5735 5734 5734 5734 5734 5734 5734 5733 5732 5732 5731 5730 5730 5729 5728 5727 5726 5725 5725 5724 5723 5722 5721 5720 5719 5718 5718 5717 5716 5714 5713 5712 5711 5709 5708
5716 5716 5716 5717 5718 5718 5718 5717 5717 5719 5720 5721 5722 5722 5722 5722 5723 5723 5724 5725 5726 5726 5727 5727 5727 5727 5727 5727 5727 5727 5728 5728 5728 5728 5729 5729 5729 5729 5729 5730 5731 5731 5731 5731 5732 5733 5731 5729 5728 5729 5729 5729 5728 5728 5728 5728 5728 5727 5726 5725 5725 5724 5723 5723 5722 5721 5720 5719 5718 5717 5716 5716 5715 5714 5713 5712 5711 5711 5709 5708 5707 5705 5704 5702 5701
5712 5712 5712 5713 5714 5715 5714 5714 5714 5714 5715 5717 5717 5718 5718 5719 5719 5720 5721 5721 5722 5722 5722 5722 5722 5722 5722 5722 5722 5722 5723 5723 5723 5723 5723 5723 5723 5724 5724 5725 5724 5724 5724 5724 5725 5726 5726 5723 5722 5723 5724 5723 5722 5722 5721 5722 5722 5722 5719 5718 5718 5717 5717 5716 5715 5714 5714 5713 5712 5711 5710 5709 5709 5708 5707 5706 5704 5703 5702 5701 5699 5698 5696 5695 5694
5706 5707 5707 5708 5709 5709 5709 5709 5710 5709 5709 5711 5712 5712 5713 5714 5715 5715 5716 5716 5717 5717 5717 5717 5717 5717 5717 5717 5717 5717 5717 5717 5717 5718 5718 5718 5718 5718 5719 5720 5719 5717 5717 5718 5718 5719 5720 5718 5717 5717 5717 5717 5717 5717 5716 5716 5717 5717 5715 5712 5711 5710 5710 5709 5708 5707 5707 5706 5705 5704 5703 5703 5702 5701 5700 5699 5697 5696 5695 5693 5692 5690 5689 5688 5687
5701 5702 5703 5703 5703 5704 5704 5704 5705 5704 5703 5704 5705 5706 5707 5707 5708 5708 5708 5709 5710 5711 5712 5712 5711 5711 5711 5711 5711 5711 5711 5711 5711 5711 5711 5711 5712 5712 5713 5714 5713 5711 5711 5712 5712 5712 5712 5711 5710 5710 5710 5710 5710 5710 5710 5710 5710 5711 5710 5708 5706 5705 5704 5702 5701 5701 5700 5699 5699 5698 5697 5696 5695 5694 5693 5692 5691 5689 5688 5686 5685 5683 5682 5680 5680
5696 5696 5697 5697 5698 5698 5698 5698 5698 5698 5698 5698 5699 5699 5700 5700 5700 5700 5700 5701 5702 5703 5705 5706 5706 5705 5706 5706 5705 5705 5705 5705 5705 5705 5705 5705 5705 5705 5707 5708 5708 5705 5705 5705 5705 5705 5705 5704 5703 5703 5703 5703 5703 5704 5704 5703 5703 5703 5703 5702 5701 5700 5698 5697 5696 5695 5694 5693 5693 5692 5691 5690 5689 5688 5687 5685 5684 5682 5681 5680 5679 5677 5676 5674 5673
5691 5692 5692 5692 5692 5692 5692 5692 5692 5692 5692 5692 5692 5692 5692 5692 5693 5693 5693 5693 5694 5695 5697 5699 5700 5700 5700 5700 5699 5699 5699 5699 5698 5698 5698 5697 5697 5697 5699 5701 5701 5700 5698 5698 5698 5697 5697 5697 5696 5696 5695 5696 5696 5696 5696 5696 5695 5695 5695 5695 5694 5693 5692 5691 5690 5690 5689 5688 5687 5686 5685 5684 5683 5682 5680 5678 5676 5675 5674 5673 5672 5670 5669 5667 5666
5687 5687 5687 5686 5687 5687 5687 5686 5686 5685 5685 5685 5685 5684 5684 5685 5686 5687 5687 5687 5688 5689 5690 5692 5694 5695 5695 5694 5693 5693 5693 5692 5692 5691 5691 5689 5689 5689 5689 5691 5693 5693 5692 5692 5691 5690 5690 5689 5688 5688 5688 5687 5687 5687 5687 5687 5687 5687 5687 5687 5687 5686 5686 5685 5684 5683 5683 5682 5681 5679 5678 5677 5676 5675 5674 5671 5670 5669 5667 5666 5664 5663 5662 5661 5659
5681 5681 5681 5681 5681 5681 5681 5680 5679 5679 5679 5679 5678 5678 5677 5677 5678 5679 5680 5681 5681 5681 5682 5684 5686 5689 5689 5689 5688 5687 5686 5686 5686 5685 5684 5682 5681 5680 5680 5680 5684 5686 5686 5685 5684 5684 5683 5682 5681 5681 5681 5680 5680 5680 5679 5679 5679 5679 5679 5679 5679 5679 5679 5678 5677 5676 5676 5675 5674 5673 5671 5670 5668 5667 5665 5664 5663 5662 5661 5660 5658 5657 5655 5654 5652
5676 5676 5675 5675 5674 5674 5674 5674 5673 5673 5673 5673 5673 5672 5671 5672 5672 5672 5672 5673 5673 5673 5673 5674 5676 5679 5680 5681 5681 5681 5680 5679 5679 5678 5678 5676 5675 5674 5672 5671 5673 5677 5679 5678 5676 5676 5676 5675 5673 5674 5674 5674 5674 5673 5673 5672 5672 5671 5671 5671 5671 5671 5671 5671 5670 5670 5669 5668 5668 5666 5665 5663 5661 5658 5656 5655 5654 5654 5653 5652 5651 5649 5648 5646 5645
5669 5669 5669 5668 5668 5667 5667 5667 5667 5666 5666 5666 5666 5666 5665 5665 5665 5665 5664 5665 5665 5665 5664 5664 5665 5668 5670 5670 5671 5671 5672 5671 5670 5670 5670 5669 5668 5667 5665 5663 5663 5665 5668 5669 5668 5668 5668 5667 5666 5666 5666 5666 5666 5666 5666 5666 5665 5665 5664 5664 5664 5664 5664 5663 5663 5662 5661 5661 5660 5659 5658 5656 5654 5651 5649 5647 5646 5645 5644 5643 5642 5641 5640 5639 5637
5662 5662 5662 5661 5661 5660 5660 5659 5659 5659 5659 5658 5658 5658 5658 5657 5657 5657 5657 5657 5657 5657 5658 5657 5656 5656 5658 5660 5661 5661 5662 5662 5662 5661 5661 5660 5660 5659 5658 5656 5655 5656 5657 5658 5658 5659 5660 5659 5659 5658 5658 5658 5658 5658 5658 5658 5658 5657 5657 5657 5657 5657 5656 5656 5655 5654 5654 5653 5652 5651 5650 5648 5646 5645 5643 5640 5639 5638 5636 5634 5633 5632 5631 5630 5628
5654 5654 5655 5654 5654 5653 5652 5651 5651 5651 5651 5650 5650 5649 5649 5649 5649 5648 5648 5648 5648 5648 5650 5651 5650 5648 5648 5650 5651 5653 5654 5654 5653 5653 5653 5652 5651 5651 5650 5650 5649 5649 5649 5649 5649 5650 5651 5651 5650 5650 5650 5649 5649 5650 5650 5650 5649 5649 5649 5649 5650 5650 5649 5648 5647 5647 5647 5645 5644 5643 5643 5641 5639 5637 5635 5633 5631 5630 5629 5627 5625 5624 5623 5621 5620
5645 5645 5645 5645 5645 5645 5645 5644 5643 5643 5642 5641 5641 5640 5639 5639 5639 5639 5639 5639 5638 5639 5640 5641 5642 5641 5641 5641 5643 5644 5646 5647 5646 5645 5645 5645 5644 5644 5644 5644 5643 5642 5643 5642 5641 5642 5643 5642 5642 5643 5642 5642 5642 5642 5643 5643 5642 5641 5642 5642 5642 5642 5641 5641 5640 5640 5639 5638 5637 5636 5635 5634 5632 5630 5628 5626 5624 5623 5621 5620 5618 5617 5615 5614 5612
5635 5635 5634 5635 5635 5635 5636 5636 5636 5635 5634 5633 5632 5631 5630 5629 5628 5629 5629 5628 5628 5628 5629 5629 5631 5632 5632 5633 5635 5636 5638 5640 5639 5638 5638 5638 5638 5638 5638 5638 5638 5636 5636 5636 5636 5635 5635 5635 5635 5635 5635 5635 5635 5635 5636 5636 5635 5634 5634 5634 5635 5635 5634 5634 5634 5633 5632 5631 5631 5629 5628 5626 5625 5623 5620 5618 5616 5615 5614 5612 5611 5609 5607 5606 5604
5626 5625 5625 5624 5625 5626 5626 5627 5626 5626 5625 5623 5623 5622 5620 5619 5618 5619 5619 5618 5616 5617 5617 5618 5619 5621 5622 5624 5626 5628 5631 5632 5632 5633 5634 5632 5630 5631 5631 5631 5630 5629 5629 5630 5629 5629 5628 5628 5627 5627 5628 5628 5629 5629 5630 5629 5628 5627 5627 5627 5628 5628 5628 5628 5627 5626 5625 5625 5623 5621 5620 5618 5616 5614 5612 5610 5609 5607 5606 5604 5602 5601 5599 5598 5596
5617 5616 5615 5615 5616 5616 5617 5616 5615 5615 5614 5613 5613 5612 5610 5608 5608 5609 5609 5608 5606 5606 5607 5608 5609 5611 5612 5615 5617 5619 5622 5623 5622 5625 5626 5624 5622 5622 5622 5622 5622 5621 5622 5623 5623 5622 5621 5621 5620 5619 5620 5621 5622 5623 5623 5622 5621 5621 5621 5621 5621 5621 5621 5621 5621 5620 5619 5618 5616 5614 5612 5610 5608 5607 5605 5603 5602 5600 5598 5597 5595 5593 5592 5590 5589
5608 5607 5606 5606 5606 5606 5606 5605 5604 5604 5603 5602 5601 5601 5600 5599 5598 5598 5599 5599 5598 5597 5598 5600 5601 5601 5603 5605 5606 5608 5610 5611 5612 5614 5615 5614 5613 5613 5613 5613 5614 5615 5615 5616 5615 5615 5616 5615 5613 5612 5612 5613 5615 5616 5615 5614 5614 5615 5615 5615 5614 5614 5614 5614 5614 5614 5613 5612 5609 5607 5605 5603 5602 5600 5599 5597 5596 5594 5592 5591 5589 5587 5586 5585 5584
5598 5597 5597 5596 5596 5595 5595 5594 5593 5592 5592 5591 5590 5590 5590 5590 5589 5588 5588 5588 5588 5589 5589 5590 5590 5591 5593 5595 5596 5597 5598 5599 5601 5604 5605 5605 5605 5605 5605 5606 5607 5607 5607 5607 5608 5608 5609 5608 5607 5606 5606 5607 5608 5608 5608 5607 5608 5609 5609 5608 5609 5609 5608 5607 5607 5607 5607 5605 5603 5601 5599 5597 5596 5594 5593 5592 5590 5588 5587 5585 5584 5583 5581 5580 5579
5589 5588 5587 5587 5586 5585 5584 5583 5582 5581 5581 5580 5579 5578 5578 5578 5578 5577 5575 5575 5576 5578 5578 5578 5579 5580 5581 5583 5585 5586 5587 5589 5590 5592 5594 5595 5596 5595 5596 5597 5597 5598 5599 5600 5600 5599 5599 5598 5598 5599 5600 5601 5601 5601 5600 5600 5601 5601 5601 5601 5602 5603 5603 5601 5601 5601 5601 5600 5598 5596 5593 5592 5590 5589 5587 5586 5585 5584 5582 5581 5580 5579 5578 5577 5576
5581 5580 5579 5578 5577 5576 5575 5573 5572 5571 5570 5569 5568 5567 5566 5565 5565 5565 5564 5563 5564 5566 5567 5567 5568 5569 5570 5571 5573 5575 5577 5578 5580 5581 5583 5584 5586 5586 5586 5587 5587 5588 5590 5591 5591 5590 5589 5589 5589 5590 5592 5593 5593 5593 5593 5594 5594 5594 5594 5594 5595 5596 5596 5596 5595 5594 5595 5594 5593 5591 5589 5587 5586 5584 5583 5582 5581 5580 5579 5578 5577 5576 5575 5574 5573
5574 5572 5571 5570 5568 5567 5565 5563 5562 5561 5559 5558 5557 5556 5555 5554 5552 5552 5553 5552 5552 5554 5555 5556 5557 5559 5560 5561 5562 5564 5567 5568 5569 5570 5572 5574 5577 5578 5578 5578 5578 5579 5581 5581 5581 5580 5580 5580 5580 5581 5583 5585 5585 5585 5585 5586 5586 5587 5587 5587 5588 5589 5589 5590 5589 5588 5588 5588 5587 5585 5584 5583 5581 5580 5579 5578 5577 5576 5576 5575 5574 5574 5573 5571 5570
5567 5566 5564 5562 5560 5558 5556 5554 5552 5550 5549 5547 5546 5545 5544 5542 5541 5541 5541 5540 5541 5542 5544 5545 5546 5547 5549 5551 5552 5555 5557 5558 5559 5561 5563 5566 5569 5571 5571 5571 5571 5572 5572 5572 5571 5571 5570 5570 5571 5573 5575 5576 5577 5577 5577 5578 5579 5581 5581 5581 5581 5582 5583 5583 5583 5582 5582 5582 5581 5580 5579 5578 5577 5576 5576 5575 5574 5574 5573 5573 5572 5571 5570 5569 5567
5562 5560 5558 5555 5552 5549 5547 5545 5543 5541 5540 5538 5536 5535 5534 5532 5531 5531 5530 5530 5530 5532 5533 5535 5536 5537 5538 5540 5543 5545 5547 5549 5551 5552 5554 5557 5560 5563 5563 5563 5563 5564 5564 5563 5563 5563 5563 5562 5563 5565 5566 5567 5568 5569 5570 5571 5573 5574 5574 5574 5575 5577 5578 5577 5577 5576 5576 5576 5576 5575 5575 5574 5573 5573 5572 5572 5571 5571 5571 5570 5570 5569 5568 5567 5565
5557 5555 5552 5549 5545 5543 5540 5538 5536 5535 5533 5531 5529 5527 5526 5524 5523 5523 5522 5522 5522 5523 5524 5527 5528 5529 5530 5532 5534 5536 5538 5541 5543 5544 5546 5549 5551 5552 5552 5553 5554 5555 5556 5556 5556 5556 5556 5556 5557 5559 5559 5560 5561 5562 5562 5564 5566 5567 5566 5567 5570 5572 5571 5571 5571 5571 5571 5571 5571 5571 5570 5570 5570 5570 5569 5569 5569 5569 5568 5568 5568 5567 5566 5565 5563
5553 5551 5548 5545 5542 5539 5536 5534 5532 5531 5529 5527 5525 5523 5521 5519 5518 5517 5516 5516 5516 5516 5518 5520 5521 5522 5523 5525 5527 5529 5532 5534 5536 5538 5540 5542 5542 5542 5542 5544 5546 5548 5549 5549 5550 5551 5551 5549 5550 5552 5553 5553 5554 5555 5556 5558 5560 5559 5559 5561 5564 5565 5564 5564 5565 5566 5566 5567 5567 5566 5566 5566 5566 5566 5566 5566 5566 5566 5566 5566 5566 5565 5564 5563 5561
5550 5547 5545 5542 5539 5536 5534 5531 5529 5527 5526 5524 5522 5520 5518 5516 5515 5514 5513 5512 5512 5512 5513 5514 5515 5516 5517 5518 5520 5523 5526 5528 5529 5531 5533 5534 5534 5534 5535 5537 5539 5541 5543 5544 5545 5546 5545 5543 5544 5546 5547 5547 5548 5549 5551 5552 5553 5552 5553 5555 5557 5557 5558 5559 5560 5560 5561 5562 5562 5562 5562 5563 5563 5563 5563 5564 5564 5564 5564 5564 5563 5563 5562 5561 5560
5546 5544 5542 5539 5537 5534 5532 5529 5527 5525 5523 5521 5519 5518 5516 5515 5513 5512 5511 5510 5509 5509 5509 5510 5510 5511 5512 5512 5514 5517 5519 5521 5522 5524 5527 5527 5527 5527 5529 5531 5534 5536 5537 5538 5538 5539 5539 5539 5540 5540 5540 5541 5543 5544 5545 5545 5545 5545 5546 5548 5549 5550 5552 5553 5554 5555 5556 5557 5557 5558 5558 5559 5559 5560 5561 5561 5562 5562 5562 5562 5561 5561 5560 5560 5558
5544 5541 5539 5537 5534 5532 5530 5527 5525 5523 5521 5520 5518 5516 5515 5513 5512 5511 5510 5509 5508 5508 5507 5507 5506 5506 5507 5507 5508 5510 5512 5514 5516 5519 5521 5522 5521 5521 5523 5527 5529 5531 5532 5532 5532 5532 5533 5533 5534 5534 5535 5536 5537 5537 5537 5537 5537 5538 5539 5541 5543 5545 5546 5548 5549 5550 5551 5552 5553 5554 5555 5556 5557 5557 5558 5559 5559 5559 5559 5559 5559 5559 5559 5558 5557
5541 5539 5537 5535 5533 5530 5528 5526 5524 5522 5520 5518 5516 5514 5513 5512 5511 5510 5509 5508 5507 5506 5505 5504 5503 5502 5501 5502 5502 5503 5505 5507 5509 5512 5514 5515 5515 5517 5520 5523 5524 5526 5527 5527 5528 5528 5528 5528 5529 5529 5529 5529 5530 5530 5529 5530 5531 5532 5534 5536 5538 5540 5541 5542 5544 5546 5547 5548 5549 5551 5552 5553 5554 5555 5556 5557 5557 5557 5557 5557 5557 5557 5557 5556 5555
5539 5537 5535 5533 5531 5529 5527 5525 5522 5520 5518 5516 5514 5512 5511 5510 5509 5508 5507 5506 5505 5504 5502 5501 5499 5497 5496 5496 5496 5496 5498 5500 5503 5506 5509 5510 5511 5514 5516 5518 5520 5521 5522 5523 5523 5523 5523 5523 5523 5523 5523 5523 5524 5524 5524 5525 5526 5527 5529 5531 5533 5535 5536 5538 5540 5542 5543 5545 5546 5548 5549 5550 5551 5552 5553 5554 5555 5555 5555 5555 5555 5555 5554 5554 5553
5537 5536 5534 5532 5530 5528 5526 5523 5521 5519 5517 5514 5512 5510 5509 5508 5507 5507 5506 5505 5504 5502 5500 5498 5496 5494 5492 5490 5490 5491 5492 5495 5498 5501 5504 5506 5508 5510 5513 5514 5516 5517 5518 5519 5519 5519 5518 5518 5518 5518 5518 5519 5519 5519 5520 5520 5521 5523 5524 5527 5529 5531 5532 5534 5536 5538 5540 5542 5544 5545 5546 5548 5549 5550 5551 5552 5552 5553 5553 5553 5553 5552 5552 5552 5552
5536 5534 5533 5531 5529 5527 5524 5522 5520 5518 5515 5514 5511 5509 5508 5507 5506 5506 5505 5504 5503 5501 5499 5497 5495 5492 5489 5488 5487 5488 5489 5491 5494 5498 5501 5503 5505 5507 5509 5510 5512 5513 5514 5514 5514 5514 5513 5513 5513 5513 5514 5515 5516 5516 5516 5517 5518 5520 5522 5524 5526 5528 5530 5532 5534 5536 5538 5540 5541 5543 5544 5545 5546 5547 5548 5549 5550 5550 5550 5551 5550 5550 5550 5550 5550
5535 5534 5532 5530 5528 5526 5523 5521 5519 5516 5515 5513 5511 5510 5508 5507 5506 5505 5504 5503 5503 5501 5500 5498 5495 5492 5490 5488 5487 5487 5488 5490 5492 5495 5498 5500 5502 5503 5505 5506 5508 5509 5510 5510 5510 5510 5510 5509 5509 5510 5511 5512 5513 5513 5514 5515 5517 5519 5520 5522 5524 5526 5528 5530 5532 5534 5536 5538 5539 5541 5542 5543 5544 5545 5546 5546 5547 5548 5548 5548 5548 5548 5548 5548 5547
5535 5533 5531 5529 5527 5525 5523 5520 5518 5516 5514 5513 5511 5510 5508 5507 5506 5504 5504 5503 5502 5501 5500 5498 5496 5494 5492 5490 5489 5489 5489 5491 5492 5494 5496 5498 5499 5501 5502 5504 5505 5506 5507 5508 5508 5508 5508 5508 5508 5509 5510 5511 5511 5512 5513 5514 5516 5517 5519 5520 5523 5525 5526 5528 5530 5532 5534 5536 5537 5538 5539 5540 5541 5542 5543 5544 5545 5545 5546 5546 5546 5546 5546 5546 5545
5534 5532 5531 5529 5528 5526 5524 5521 5518 5516 5514 5512 5511 5510 5509 5508 5507 5505 5504 5503 5502 5502 5501 5499 5497 5496 5494 5493 5492 5492 5492 5492 5493 5495 5496 5497 5498 5500 5501 5503 5504 5505 5506 5507 5507 5507 5507 5507 5508 5508 5509 5510 5511 5511 5512 5514 5515 5516 5518 5520 5522 5524 5526 5528 5529 5531 5533 5534 5535 5536 5537 5538 5539 5540 5541 5541 5542 5543 5543 5543 5544 5544 5544 5544 5543
5534 5532 5531 5530 5529 5527 5525 5523 5520 5517 5515 5513 5512 5511 5510 5509 5508 5506 5505 5504 5503 5503 5502 5500 5499 5497 5496 5495 5495 5494 5494 5494 5495 5496 5496 5497 5499 5500 5501 5502 5503 5504 5505 5505 5505 5506 5506 5507 5507 5507 5508 5509 5510 5511 5512 5514 5515 5517 5518 5520 5522 5523 5525 5527 5528 5530 5531 5532 5533 5534 5535 5536 5536 5537 5538 5539 5539 5540 5540 5541 5541 5541 5541 5541 5541
5533 5532 5531 5530 5529 5528 5526 5524 5522 5519 5517 5514 5513 5511 5510 5509 5509 5507 5506 5505 5504 5504 5503 5501 5500 5499 5498 5497 5497 5496 5496 5496 5496 5497 5497 5498 5499 5500 5501 5502 5503 5503 5504 5504 5504 5504 5504 5505 5505 5506 5508 5509 5510 5511 5512 5514 5515 5517 5518 5520 5521 5523 5524 5526 5527 5528 5529 5530 5531 5532 5532 5533 5534 5534 5535 5536 5536 5537 5538 5538 5539 5539 5539 5539 5539